Regional Weather Roundup
Issued by NWS

Home | Current Version | Previous Version | Text Only | Print | Product List | Glossary Off
Versions: 1 2 3 4 5 6 7 8 9 10 11 12 13 14 15 16 17 18 19 20 21 22 23 24 25 26 27 28 29 30 31 32 33 34 35 36 37 38 39 40 41 42 43 44 45 46 47 48 49 50

000
ASUS43 KMKX 250011
RWRWI

WISCONSIN REGIONAL WEATHER ROUNDUP
NATIONAL WEATHER SERVICE MILWAUKEE/SULLIVAN WI
700 PM CDT FRI OCT 24 2014

NOTE: "FAIR" INDICATES FEW OR NO CLOUDS BELOW 12,000 FEET WITH NO
SIGNIFICANT WEATHER AND/OR OBSTRUCTIONS TO VISIBILITY.

WIZ001-002-006>008-014>016-023>028-250100-
NORTHWEST WISCONSIN

CITY           SKY/WX    TMP DP  RH WIND       PRES   REMARKS
SUPERIOR ARPT  PTCLDY    62  52  69 SW9       29.76S
6HR MIN TEMP:  62; 6HR MAX TEMP:  72;

ASHLAND        CLEAR     57  51  80 SW12      29.78S
6HR MIN TEMP:  57; 6HR MAX TEMP:  70;

HAYWARD        CLOUDY    57  52  83 S10       29.83S
6HR MIN TEMP:  57; 6HR MAX TEMP:  66;

SIREN          MOCLDY    55  52  89 S5        29.84R
6HR MIN TEMP:  55; 6HR MAX TEMP:  66;

CUMBERLAND     MOCLDY    52  52 100 S5        29.85R FOG
RICE LAKE      CLOUDY    55  53  92 S5        29.87S FOG
6HR MIN TEMP:  55; 6HR MAX TEMP:  60;

CHETEK         CLOUDY    56  55  94 S3        29.86S
6HR MIN TEMP:  56; 6HR MAX TEMP:  59;

LADYSMITH      CLOUDY    57  53  85 SW7       29.88R
6HR MIN TEMP:  57; 6HR MAX TEMP:  62;

EAU CLAIRE     CLOUDY    57  55  93 SW6       29.87S
6HR MIN TEMP:  57; 6HR MAX TEMP:  60;

MENOMONIE      CLOUDY    57  55  94 S7        29.87S FOG
6HR MIN TEMP:  57; 6HR MAX TEMP:  61;

NEW RICHMOND   MOCLDY    54  53  97 S6        29.86R FOG
6HR MIN TEMP:  54; 6HR MAX TEMP:  60;

OSCEOLA        MOCLDY    54  54 100 S5        29.87S
6HR MIN TEMP:  54; 6HR MAX TEMP:  62;

$$

WIZ003>005-009-010-017-018-250100-
NORTH CENTRAL WISCONSIN

CITY           SKY/WX    TMP DP  RH WIND       PRES   REMARKS
MANITOWISH WTR CLOUDY    56  50  80 SW9G17    29.83R
6HR MIN TEMP:  53; 6HR MAX TEMP:  61;

ARBOR VITAE    CLOUDY    57  50  78 SW10      29.84S
6HR MIN TEMP:  55; 6HR MAX TEMP:  62;

WOODRUFF       CLOUDY    57  50  78 SW10      29.84S
6HR MIN TEMP:  55; 6HR MAX TEMP:  62;

RHINELANDER    CLOUDY    54  47  77 SW8       29.87S
6HR MIN TEMP:  52; 6HR MAX TEMP:  60;

EAGLE RIVER    CLOUDY    55  45  67 SW9       29.83S
6HR MIN TEMP:  54; 6HR MAX TEMP:  62;

LAND O LAKES   CLOUDY    57  45  65 SW6       29.84R
6HR MIN TEMP:  57; 6HR MAX TEMP:  64;

PHILLIPS       CLOUDY    55  50  81 SW7       29.84S
6HR MIN TEMP:  55; 6HR MAX TEMP:  64;

TOMAHAWK       CLOUDY    55  47  76 CALM      29.87S
6HR MIN TEMP:  50; 6HR MAX TEMP:  60; 6HR PCP:  0.01;

MEDFORD        CLOUDY    53  50  87 S5        29.87S
6HR MIN TEMP:  49; 6HR MAX TEMP:  56;

MERRILL        CLOUDY    55  49  81 SW6       29.87S
6HR MIN TEMP:  49; 6HR MAX TEMP:  58;

$$

WIZ029-030-035-036-043>047-250100-
CENTRAL WISCONSIN

CITY           SKY/WX    TMP DP  RH WIND       PRES   REMARKS
WAUSAU         CLOUDY    56  49  77 SW3       29.88R
6HR MIN TEMP:  48; 6HR MAX TEMP:  58;

MOSINEE        CLOUDY    54  52  94 S6        29.89S
MARSHFIELD     CLOUDY    57  51  80 SW5       29.88S
6HR MIN TEMP:  50; 6HR MAX TEMP:  58;

STEVENS POINT  CLOUDY    55  50  83 S6        29.89S
6HR MIN TEMP:  48; 6HR MAX TEMP:  58; 6HR PCP:  0.02;

WAUPACA        CLOUDY    54  51  92 CALM      29.90S
6HR MIN TEMP:  52; 6HR MAX TEMP:  60;

WAUTOMA        CLOUDY    56  51  83 CALM      29.91S
6HR MIN TEMP:  52; 6HR MAX TEMP:  60;

WISC RAPIDS    CLOUDY    57  50  77 S5        29.91R
6HR MIN TEMP:  50; 6HR MAX TEMP:  60;

CAMP DOUGLAS   CLOUDY    59  59 100 SW5       29.90R
6HR MIN TEMP:  59; 6HR MAX TEMP:  63;

$$

WIZ011>013-019>022-031-037>040-048>050-250100-
NORTHEAST WISCONSIN

CITY           SKY/WX    TMP DP  RH WIND       PRES   REMARKS
ANTIGO         CLOUDY    52  49  90 S5        29.88S
6HR MIN TEMP:  48; 6HR MAX TEMP:  56;

SHAWANO        CLOUDY    54  49  85 CALM      29.89S
6HR MIN TEMP:  51; 6HR MAX TEMP:  56;

OCONTO         CLEAR     49  49 100 S3        29.89F
6HR MIN TEMP:  49; 6HR MAX TEMP:  56;

STURGEON BAY   CLOUDY    48  46  93 S9        29.91S VSB 3/4
6HR MIN TEMP:  48; 6HR MAX TEMP:  57;

GREEN BAY      CLOUDY    50  49  96 S6        29.90F
6HR MIN TEMP:  50; 6HR MAX TEMP:  54;

MANITOWOC      MOCLDY    50  49  96 S7        29.93S FOG
6HR MIN TEMP:  50; 6HR MAX TEMP:  59;

APPLETON       MOCLDY    52  48  87 VRB3      29.90F
CLINTONVILLE   PTCLDY    52  48  87 S3        29.89S
OSHKOSH        CLOUDY    54  51  90 S7        29.91S
6HR MIN TEMP:  52; 6HR MAX TEMP:  57;

$$

WIZ032>034-041-042-053>061-250100-
SOUTHWEST WISCONSIN

CITY           SKY/WX    TMP DP  RH WIND       PRES   REMARKS
LA CROSSE      CLOUDY    60  56  86 S6        29.89S
6HR MIN TEMP:  60; 6HR MAX TEMP:  66;

SPARTA         CLOUDY    59  56  88 CALM      29.91R
6HR MIN TEMP:  59; 6HR MAX TEMP:  64;

VIROQUA        CLOUDY    57  57 100 SW5       29.92R
6HR MIN TEMP:  57; 6HR MAX TEMP:  64;

BOSCOBEL       CLOUDY    59  57  93 SW3       29.92R FOG
6HR MIN TEMP:  59; 6HR MAX TEMP:  66; 6HR PCP: TRACE;

PRAIRIE DU CHI CLOUDY    60  56  86 CALM      29.92R
6HR MIN TEMP:  59; 6HR MAX TEMP:  65;

PLATTEVILLE    CLOUDY    59  55  84 CALM      29.93R
6HR MIN TEMP:  55; 6HR MAX TEMP:  62;

$$

WIZ056-057-062-063-064-067-068-250100-
SOUTH CENTRAL WISCONSIN

CITY           SKY/WX    TMP DP  RH WIND       PRES   REMARKS
REEDSBURG      CLOUDY    58  52  78 S6        29.91R
6HR MIN TEMP:  54; 6HR MAX TEMP:  62;

BARABOO/DELLS  CLOUDY    59  49  69 SW10      29.91S
6HR MIN TEMP:  56; 6HR MAX TEMP:  61;

LONE ROCK      CLOUDY    63  53  70 SW6       29.92R
6HR MIN TEMP:  62; 6HR MAX TEMP:  68;

MINERAL POINT  CLOUDY    59  54  82 CALM      29.93R
MADISON        CLOUDY    60  51  72 S3        29.93R
6HR MIN TEMP:  54; 6HR MAX TEMP:  61;

MIDDLETON      CLOUDY    60  49  68 CALM      29.93R
6HR MIN TEMP:  57; 6HR MAX TEMP:  64;

WATERTOWN      CLOUDY    55  51  89 CALM      29.93R
6HR MIN TEMP:  52; 6HR MAX TEMP:  58;

MONROE         CLOUDY    55  50  82 S6        29.93R
JANESVILLE     CLOUDY    57  50  77 SE6       29.92S
$$

WIZ051-052-058>065-066-070>072-250100-
SOUTHEAST WISCONSIN

CITY           SKY/WX    TMP DP  RH WIND       PRES   REMARKS
MILWAUKEE      MOCLDY    54  50  86 S6        29.94S
6HR MIN TEMP:  52; 6HR MAX TEMP:  62;

WAUKESHA       PTCLDY    54  48  82 S3        29.95S
MILWAUKEE/TIMM MOCLDY    57  48  72 CALM      29.94S
RACINE         MOCLDY    53  50  89 S5        29.96S FOG
6HR MIN TEMP:  52; 6HR MAX TEMP:  61;

BURLINGTON     MOCLDY    50  49  97 CALM      29.94S FOG
6HR MIN TEMP:  50; 6HR MAX TEMP:  60;

KENOSHA        CLOUDY    53  50  89 SE5       29.95S FOG
6HR MIN TEMP:  53; 6HR MAX TEMP:  63;

FOND DU LAC    CLOUDY    55  49  80 S8        29.92R
6HR MIN TEMP:  52; 6HR MAX TEMP:  57;

SHEBOYGAN      PTCLDY    51  48  89 CALM      29.93R
6HR MIN TEMP:  50; 6HR MAX TEMP:  63;

WEST BEND      CLOUDY    55  45  67 SW3       29.93S
JUNEAU         CLOUDY    54  49  85 SE6       29.94R
6HR MIN TEMP:  51; 6HR MAX TEMP:  58;

$$

LSZ147-162-250100-
LAKE SUPERIOR

STATION/POSITION TIME  TEMP    WIND        PRES    WAVE
                       AIR SEA DIR/SP/G            HT/PER
                 (UTC) (F)     (DEG/KT/KT) (MB)    (FT/S)
W MID LAKE BUOY  2350   53 47  210/ 12/ 14 1005.9F   0
DEVILS ISLAND    0000   60     210/ 14/ 15 1006.7R
PORT WING        2300   64     190/ 11/ 17 1007.5R
SAXON HARBOR     2340   62     200/ 10/ 16 1008.1R
$$

LMZ867-665-643>646-250100-
LAKE MICHIGAN




USA.gov is the U.S. government's official web portal to all federal, state and local government web resources and services.